QPF
0.05 0.04 0.06 0.06 0.05 0.04 0.03 0.03 0.04 0.04 0.03 0.03 0.03 0.03 0.02 0.03 0.03 0.02 0.02 0.03 0.03 0.02 0.02 0.01 0.02 0.02 0.02 0.03 0.03 0.02 0.02 0.02 0.02 0.02 0.02 0.02 0.01 0.01
0.06 0.05 0.05 0.07 0.07 0.05 0.04 0.05 0.05 0.05 0.04 0.04 0.04 0.04 0.03 0.03 0.03 0.02 0.02 0.03 0.03 0.03 0.02 0.02 0.02 0.01 0.01 0.03 0.04 0.03 0.02 0.02 0.02 0.02 0.02 0.02 0.01 0.01
0.06 0.07 0.06 0.07 0.08 0.08 0.07 0.05 0.05 0.06 0.06 0.07 0.06 0.05 0.04 0.04 0.04 0.03 0.03 0.03 0.03 0.04 0.03 0.02 0.01 0.01 0.01 0.01 0.02 0.04 0.03 0.02 0.02 0.02 0.02 0.02 0.01 0.01
0.05 0.06 0.06 0.07 0.08 0.09 0.09 0.07 0.06 0.06 0.06 0.08 0.06 0.05 0.04 0.03 0.03 0.04 0.03 0.02 0.02 0.03 0.04 0.04 0.03 0.01 0.01 0.00 0.01 0.02 0.03 0.02 0.02 0.02 0.02 0.01 0.01 0.01
0.04 0.05 0.06 0.07 0.08 0.07 0.07 0.07 0.06 0.05 0.05 0.05 0.05 0.03 0.03 0.03 0.03 0.03 0.03 0.03 0.02 0.02 0.03 0.04 0.04 0.03 0.01 0.01 0.00 0.01 0.01 0.02 0.02 0.01 0.01 0.01 0.01 0.01
0.04 0.04 0.05 0.06 0.06 0.05 0.05 0.05 0.05 0.05 0.04 0.04 0.03 0.02 0.02 0.02 0.02 0.02 0.02 0.02 0.02 0.02 0.02 0.03 0.05 0.04 0.02 0.01 0.00 0.00 0.00 0.01 0.01 0.02 0.02 0.01 0.01 0.01
0.04 0.04 0.04 0.05 0.05 0.04 0.04 0.03 0.03 0.03 0.03 0.02 0.02 0.02 0.02 0.02 0.02 0.02 0.02 0.02 0.02 0.01 0.01 0.01 0.02 0.03 0.03 0.01 0.01 0.00 0.00 0.00 0.01 0.01 0.01 0.01 0.01 0.01
0.02 0.03 0.03 0.04 0.05 0.04 0.04 0.03 0.03 0.02 0.02 0.02 0.02 0.01 0.01 0.01 0.01 0.01 0.02 0.02 0.02 0.02 0.01 0.01 0.01 0.01 0.02 0.01 0.01 0.01 0.00 0.00 0.00 0.01 0.01 0.01 0.01 0.02
0.01 0.02 0.02 0.02 0.03 0.03 0.04 0.03 0.03 0.02 0.02 0.01 0.01 0.01 0.01 0.01 0.01 0.01 0.02 0.01 0.01 0.01 0.02 0.02 0.02 0.01 0.01 0.01 0.01 0.00 0.00 0.00 0.00 0.00 0.01 0.01 0.01 0.01
0.01 0.02 0.02 0.02 0.02 0.03 0.03 0.03 0.03 0.02 0.02 0.01 0.01 0.01 0.01 0.01 0.01 0.01 0.01 0.01 0.01 0.01 0.01 0.02 0.02 0.02 0.01 0.01 0.01 0.01 0.00 0.00 0.00 0.00 0.01 0.01 0.01 0.01
0.01 0.02 0.02 0.02 0.02 0.03 0.02 0.02 0.02 0.02 0.02 0.02 0.01 0.01 0.01 0.01 0.02 0.01 0.02 0.02 0.02 0.02 0.01 0.01 0.01 0.02 0.02 0.02 0.02 0.01 0.01 0.01 0.00 0.00 0.01 0.01 0.01 0.01
0.02 0.02 0.02 0.02 0.02 0.02 0.02 0.02 0.02 0.02 0.02 0.02 0.01 0.01 0.01 0.01 0.01 0.01 0.01 0.01 0.02 0.01 0.01 0.01 0.01 0.01 0.02 0.01 0.01 0.01 0.01 0.01 0.01 0.01 0.01 0.01 0.01 0.01
0.01 0.01 0.01 0.02 0.02 0.02 0.02 0.02 0.02 0.03 0.02 0.02 0.02 0.01 0.01 0.01 0.01 0.01 0.01 0.01 0.02 0.01 0.01 0.01 0.01 0.01 0.02 0.01 0.01 0.01 0.01 0.01 0.01 0.01 0.01 0.01 0.01 0.01
0.01 0.01 0.01 0.01 0.01 0.02 0.02 0.03 0.03 0.03 0.03 0.03 0.02 0.02 0.02 0.01 0.01 0.01 0.01 0.01 0.02 0.02 0.01 0.01 0.02 0.02 0.02 0.02 0.01 0.01 0.01 0.01 0.01 0.01 0.01 0.01 0.01 0.01
0.01 0.01 0.01 0.01 0.01 0.01 0.02 0.03 0.03 0.04 0.04 0.03 0.03 0.02 0.02 0.02 0.02 0.01 0.01 0.01 0.02 0.02 0.01 0.01 0.02 0.02 0.02 0.02 0.01 0.01 0.01 0.01 0.01 0.01 0.01 0.01 0.01 0.01
0.01 0.01 0.01 0.01 0.01 0.02 0.02 0.03 0.03 0.03 0.04 0.03 0.03 0.03 0.03 0.02 0.02 0.01 0.01 0.01 0.02 0.02 0.02 0.01 0.01 0.02 0.02 0.02 0.02 0.02 0.01 0.01 0.01 0.01 0.01 0.01 0.01 0.01
0.01 0.01 0.01 0.01 0.01 0.01 0.01 0.02 0.02 0.03 0.04 0.04 0.03 0.03 0.03 0.02 0.02 0.02 0.01 0.02 0.02 0.02 0.02 0.02 0.02 0.02 0.02 0.02 0.02 0.02 0.02 0.02 0.01 0.01 0.01 0.02 0.01 0.01
0.02 0.01 0.01 0.01 0.01 0.01 0.01 0.01 0.02 0.02 0.03 0.03 0.03 0.03 0.02 0.02 0.02 0.02 0.02 0.02 0.02 0.02 0.02 0.02 0.02 0.03 0.03 0.03 0.03 0.02 0.02 0.02 0.02 0.01 0.01 0.02 0.02 0.01
0.03 0.02 0.02 0.01 0.01 0.01 0.01 0.01 0.01 0.02 0.02 0.02 0.03 0.03 0.02 0.02 0.02 0.02 0.02 0.02 0.03 0.03 0.02 0.02 0.02 0.03 0.03 0.03 0.03 0.02 0.02 0.02 0.02 0.02 0.02 0.02 0.02 0.01
0.03 0.02 0.02 0.02 0.01 0.01 0.01 0.01 0.01 0.01 0.02 0.02 0.02 0.02 0.02 0.02 0.02 0.02 0.02 0.02 0.03 0.03 0.03 0.03 0.03 0.03 0.04 0.03 0.03 0.03 0.02 0.02 0.02 0.03 0.02 0.02 0.02 0.02
0.02 0.02 0.02 0.02 0.02 0.02 0.02 0.01 0.02 0.01 0.01 0.02 0.02 0.02 0.02 0.02 0.02 0.02 0.02 0.03 0.03 0.03 0.03 0.03 0.03 0.03 0.03 0.03 0.04 0.03 0.03 0.02 0.03 0.03 0.03 0.03 0.02 0.02
0.02 0.03 0.03 0.03 0.02 0.02 0.02 0.02 0.02 0.02 0.02 0.02 0.02 0.02 0.02 0.02 0.03 0.02 0.02 0.03 0.03 0.03 0.04 0.04 0.04 0.03 0.03 0.04 0.04 0.03 0.03 0.03 0.03 0.02 0.02 0.02 0.03 0.02
0.02 0.03 0.03 0.03 0.03 0.03 0.03 0.03 0.03 0.02 0.02 0.02 0.02 0.02 0.02 0.02 0.03 0.03 0.03 0.03 0.03 0.04 0.04 0.04 0.04 0.03 0.04 0.04 0.03 0.03 0.02 0.02 0.02 0.01 0.01 0.01 0.01 0.01
MSLP
1018.79 1018.54 1018.33 1018.13 1017.92 1017.65 1017.32 1016.94 1016.53 1016.11 1015.72 1015.41 1015.19 1015.07 1015.04 1015.07 1015.14 1015.23 1015.30 1015.37 1015.44 1015.54 1015.70 1015.96 1016.33 1016.82 1017.44 1018.17 1018.97 1019.81 1020.66 1021.50 1022.29 1023.02 1023.68 1024.26 1024.76 1025.17
1018.30 1017.92 1017.59 1017.28 1016.98 1016.65 1016.30 1015.92 1015.53 1015.16 1014.82 1014.56 1014.38 1014.29 1014.27 1014.32 1014.39 1014.48 1014.56 1014.65 1014.74 1014.88 1015.07 1015.36 1015.76 1016.28 1016.91 1017.65 1018.46 1019.32 1020.19 1021.05 1021.87 1022.64 1023.35 1023.97 1024.50 1024.94
1017.85 1017.35 1016.89 1016.48 1016.08 1015.71 1015.33 1014.96 1014.61 1014.29 1014.02 1013.82 1013.70 1013.65 1013.65 1013.70 1013.78 1013.86 1013.95 1014.04 1014.15 1014.31 1014.53 1014.85 1015.27 1015.80 1016.44 1017.17 1017.98 1018.83 1019.71 1020.58 1021.43 1022.24 1022.98 1023.65 1024.22 1024.69
1017.46 1016.84 1016.28 1015.76 1015.29 1014.86 1014.47 1014.12 1013.81 1013.55 1013.35 1013.22 1013.14 1013.13 1013.16 1013.22 1013.29 1013.36 1013.44 1013.54 1013.66 1013.83 1014.08 1014.41 1014.85 1015.39 1016.03 1016.75 1017.55 1018.39 1019.25 1020.13 1020.99 1021.82 1022.60 1023.30 1023.92 1024.44
1017.10 1016.39 1015.74 1015.14 1014.60 1014.13 1013.73 1013.39 1013.12 1012.91 1012.77 1012.70 1012.68 1012.70 1012.74 1012.81 1012.87 1012.94 1013.01 1013.11 1013.24 1013.43 1013.70 1014.06 1014.51 1015.06 1015.70 1016.41 1017.19 1018.01 1018.86 1019.72 1020.58 1021.42 1022.23 1022.97 1023.63 1024.19
1016.74 1015.97 1015.24 1014.58 1014.00 1013.49 1013.07 1012.74 1012.49 1012.32 1012.23 1012.20 1012.21 1012.26 1012.32 1012.39 1012.45 1012.52 1012.60 1012.71 1012.86 1013.08 1013.38 1013.77 1014.25 1014.82 1015.46 1016.17 1016.93 1017.73 1018.56 1019.40 1020.25 1021.09 1021.91 1022.67 1023.37 1023.96
1016.33 1015.52 1014.75 1014.04 1013.41 1012.87 1012.43 1012.09 1011.85 1011.70 1011.63 1011.62 1011.67 1011.73 1011.81 1011.89 1011.97 1012.06 1012.16 1012.30 1012.49 1012.76 1013.11 1013.55 1014.07 1014.67 1015.33 1016.04 1016.80 1017.58 1018.38 1019.20 1020.03 1020.85 1021.66 1022.43 1023.14 1023.76
1015.83 1015.00 1014.20 1013.45 1012.78 1012.21 1011.74 1011.37 1011.12 1010.97 1010.91 1010.91 1010.97 1011.06 1011.16 1011.27 1011.39 1011.51 1011.66 1011.86 1012.12 1012.45 1012.87 1013.38 1013.96 1014.61 1015.30 1016.04 1016.79 1017.56 1018.35 1019.14 1019.94 1020.73 1021.52 1022.27 1022.97 1023.60
1015.23 1014.39 1013.57 1012.79 1012.08 1011.47 1010.95 1010.56 1010.28 1010.11 1010.04 1010.05 1010.13 1010.24 1010.38 1010.54 1010.71 1010.90 1011.13 1011.41 1011.75 1012.18 1012.68 1013.27 1013.92 1014.63 1015.38 1016.14 1016.91 1017.68 1018.45 1019.21 1019.98 1020.73 1021.48 1022.20 1022.87 1023.48
1014.53 1013.68 1012.85 1012.05 1011.30 1010.64 1010.08 1009.64 1009.33 1009.13 1009.05 1009.07 1009.17 1009.33 1009.52 1009.75 1010.00 1010.28 1010.60 1010.98 1011.42 1011.94 1012.55 1013.22 1013.95 1014.73 1015.53 1016.33 1017.12 1017.90 1018.66 1019.41 1020.13 1020.85 1021.55 1022.22 1022.85 1023.43
1013.76 1012.92 1012.08 1011.26 1010.48 1009.78 1009.17 1008.69 1008.33 1008.12 1008.03 1008.06 1008.19 1008.40 1008.67 1008.98 1009.32 1009.71 1010.13 1010.62 1011.16 1011.78 1012.46 1013.21 1014.02 1014.85 1015.70 1016.55 1017.37 1018.17 1018.93 1019.66 1020.37 1021.05 1021.70 1022.32 1022.90 1023.44
1012.98 1012.15 1011.30 1010.47 1009.66 1008.92 1008.28 1007.76 1007.37 1007.14 1007.05 1007.11 1007.28 1007.55 1007.90 1008.31 1008.76 1009.24 1009.77 1010.34 1010.97 1011.66 1012.42 1013.23 1014.08 1014.96 1015.85 1016.74 1017.59 1018.41 1019.19 1019.93 1020.62 1021.28 1021.90 1022.47 1023.01 1023.50
1012.21 1011.40 1010.56 1009.72 1008.90 1008.14 1007.46 1006.91 1006.51 1006.27 1006.20 1006.29 1006.51 1006.86 1007.29 1007.79 1008.33 1008.91 1009.52 1010.16 1010.85 1011.59 1012.38 1013.22 1014.10 1015.01 1015.92 1016.84 1017.72 1018.57 1019.38 1020.13 1020.84 1021.49 1022.09 1022.64 1023.15 1023.61
1011.48 1010.70 1009.88 1009.04 1008.21 1007.44 1006.75 1006.19 1005.78 1005.55 1005.50 1005.63 1005.91 1006.33 1006.84 1007.42 1008.04 1008.69 1009.36 1010.05 1010.77 1011.52 1012.32 1013.16 1014.04 1014.95 1015.88 1016.81 1017.73 1018.61 1019.45 1020.24 1020.97 1021.63 1022.24 1022.79 1023.28 1023.72
1010.76 1010.02 1009.23 1008.41 1007.59 1006.81 1006.13 1005.57 1005.17 1004.97 1004.95 1005.12 1005.46 1005.94 1006.52 1007.16 1007.85 1008.55 1009.25 1009.96 1010.69 1011.43 1012.21 1013.02 1013.88 1014.78 1015.71 1016.66 1017.60 1018.52 1019.40 1020.23 1020.99 1021.69 1022.32 1022.87 1023.36 1023.79
1010.01 1009.32 1008.56 1007.76 1006.97 1006.21 1005.54 1005.01 1004.64 1004.47 1004.50 1004.72 1005.11 1005.65 1006.28 1006.98 1007.70 1008.43 1009.16 1009.87 1010.58 1011.30 1012.04 1012.83 1013.66 1014.54 1015.46 1016.41 1017.37 1018.32 1019.24 1020.11 1020.92 1021.65 1022.31 1022.88 1023.38 1023.80
1009.16 1008.51 1007.80 1007.04 1006.28 1005.57 1004.94 1004.45 1004.13 1004.01 1004.08 1004.36 1004.80 1005.39 1006.07 1006.81 1007.56 1008.31 1009.04 1009.75 1010.44 1011.14 1011.86 1012.61 1013.42 1014.28 1015.20 1016.15 1017.13 1018.10 1019.05 1019.95 1020.79 1021.55 1022.23 1022.82 1023.32 1023.74
1008.13 1007.53 1006.87 1006.17 1005.47 1004.82 1004.26 1003.83 1003.58 1003.52 1003.66 1004.00 1004.50 1005.13 1005.85 1006.62 1007.40 1008.17 1008.91 1009.62 1010.31 1011.00 1011.70 1012.45 1013.25 1014.10 1015.02 1015.97 1016.96 1017.94 1018.91 1019.82 1020.67 1021.44 1022.12 1022.71 1023.21 1023.62
1006.88 1006.34 1005.74 1005.12 1004.50 1003.93 1003.47 1003.14 1002.98 1003.00 1003.22 1003.63 1004.19 1004.87 1005.63 1006.44 1007.24 1008.03 1008.79 1009.52 1010.23 1010.93 1011.66 1012.41 1013.22 1014.08 1015.00 1015.96 1016.94 1017.92 1018.88 1019.79 1020.63 1021.38 1022.05 1022.61 1023.09 1023.48
1005.41 1004.93 1004.42 1003.88 1003.37 1002.92 1002.58 1002.37 1002.32 1002.46 1002.78 1003.26 1003.89 1004.63 1005.44 1006.28 1007.12 1007.94 1008.74 1009.50 1010.25 1011.00 1011.76 1012.55 1013.38 1014.27 1015.20 1016.16 1017.14 1018.10 1019.03 1019.91 1020.71 1021.43 1022.05 1022.57 1023.01 1023.37
1003.77 1003.37 1002.94 1002.53 1002.15 1001.84 1001.64 1001.58 1001.67 1001.94 1002.36 1002.94 1003.65 1004.44 1005.30 1006.18 1007.07 1007.93 1008.78 1009.59 1010.40 1011.20 1012.02 1012.87 1013.75 1014.67 1015.61 1016.58 1017.54 1018.47 1019.36 1020.18 1020.93 1021.59 1022.16 1022.63 1023.02 1023.35
1002.06 1001.74 1001.42 1001.13 1000.90 1000.75 1000.72 1000.82 1001.07 1001.47 1002.02 1002.70 1003.48 1004.34 1005.24 1006.17 1007.10 1008.01 1008.91 1009.79 1010.66 1011.53 1012.42 1013.33 1014.27 1015.22 1016.19 1017.15 1018.09 1018.99 1019.83 1020.59 1021.27 1021.87 1022.38 1022.81 1023.16 1023.45
1000.39 1000.16 999.96 999.80 999.73 999.75 999.89 1000.16 1000.56 1001.11 1001.77 1002.55 1003.41 1004.32 1005.28 1006.24 1007.21 1008.16 1009.11 1010.05 1010.99 1011.93 1012.89 1013.87 1014.85 1015.85 1016.83 1017.79 1018.71 1019.57 1020.36 1021.07 1021.70 1022.24 1022.70 1023.10 1023.42 1023.70
Thickness
5570 5569 5568 5568 5568 5567 5567 5566 5563 5560 5559 5557 5556 5556 5555 5555 5554 5553 5553 5551 5550 5549 5548 5547 5545 5543 5542 5540 5537 5535 5533 5531 5529 5527 5525 5523 5521 5519
5563 5562 5561 5560 5559 5559 5559 5558 5557 5556 5553 5550 5548 5546 5546 5545 5544 5544 5543 5542 5541 5540 5538 5537 5535 5533 5531 5530 5527 5525 5523 5520 5518 5516 5514 5512 5511 5508
5555 5555 5554 5553 5552 5551 5550 5549 5548 5546 5544 5541 5538 5537 5536 5535 5535 5534 5533 5532 5531 5530 5529 5527 5526 5524 5522 5520 5517 5515 5513 5510 5507 5505 5503 5501 5499 5498
5547 5546 5545 5545 5544 5543 5542 5540 5539 5538 5536 5533 5530 5527 5526 5525 5525 5524 5523 5522 5521 5520 5519 5517 5516 5514 5512 5510 5508 5505 5503 5500 5497 5494 5492 5491 5489 5487
5538 5538 5537 5536 5535 5534 5533 5531 5530 5529 5527 5525 5521 5518 5517 5515 5514 5514 5513 5512 5511 5510 5509 5508 5506 5504 5502 5500 5498 5495 5493 5490 5487 5484 5482 5479 5478 5476
5529 5529 5528 5528 5527 5525 5524 5523 5521 5519 5516 5515 5512 5510 5507 5505 5504 5503 5502 5501 5501 5500 5499 5498 5496 5495 5493 5490 5488 5486 5483 5480 5477 5475 5472 5470 5468 5466
5519 5519 5518 5518 5518 5517 5516 5514 5512 5509 5507 5505 5503 5500 5498 5496 5494 5493 5492 5491 5491 5490 5488 5488 5486 5485 5482 5480 5478 5476 5473 5470 5468 5465 5463 5461 5458 5456
5508 5508 5507 5507 5507 5507 5506 5505 5503 5501 5498 5496 5494 5492 5491 5488 5486 5484 5482 5480 5480 5480 5477 5477 5475 5474 5472 5470 5468 5466 5463 5460 5457 5455 5453 5450 5448 5446
5498 5497 5497 5497 5496 5495 5495 5494 5492 5491 5490 5488 5486 5484 5482 5480 5477 5474 5472 5471 5470 5469 5466 5466 5464 5463 5462 5460 5458 5456 5453 5450 5447 5445 5442 5440 5438 5435
5488 5488 5487 5486 5486 5485 5484 5482 5481 5480 5479 5478 5477 5475 5473 5471 5468 5466 5463 5460 5459 5457 5455 5453 5453 5452 5452 5450 5448 5446 5443 5440 5437 5434 5432 5429 5427 5425
5477 5477 5477 5476 5476 5475 5473 5471 5470 5468 5467 5466 5465 5463 5462 5460 5457 5453 5450 5448 5448 5446 5443 5441 5441 5440 5441 5440 5437 5434 5432 5429 5426 5423 5421 5418 5416 5414
5465 5466 5466 5466 5465 5464 5463 5461 5459 5457 5456 5454 5452 5451 5449 5447 5445 5442 5440 5437 5435 5434 5432 5429 5428 5426 5428 5429 5426 5424 5421 5418 5415 5413 5410 5407 5404 5403
5454 5454 5455 5455 5454 5454 5452 5451 5450 5448 5445 5443 5441 5439 5437 5435 5432 5430 5428 5426 5424 5423 5421 5417 5415 5412 5411 5413 5414 5412 5409 5407 5405 5402 5399 5395 5393 5390
5443 5443 5443 5443 5443 5442 5441 5440 5439 5436 5433 5431 5428 5427 5425 5423 5420 5418 5416 5414 5412 5412 5410 5406 5403 5401 5398 5397 5399 5399 5397 5395 5393 5391 5388 5384 5381 5378
5430 5431 5431 5431 5430 5430 5429 5428 5426 5424 5421 5419 5417 5415 5413 5411 5408 5405 5403 5401 5400 5399 5397 5395 5392 5389 5386 5385 5385 5385 5383 5383 5381 5378 5376 5373 5370 5368
5416 5417 5418 5417 5417 5417 5416 5415 5413 5412 5410 5408 5405 5403 5400 5398 5396 5394 5391 5389 5388 5386 5385 5383 5381 5378 5376 5374 5373 5373 5370 5368 5369 5366 5364 5362 5359 5357
5404 5404 5404 5403 5403 5403 5402 5401 5401 5399 5397 5396 5393 5391 5388 5386 5384 5382 5380 5377 5375 5374 5372 5370 5368 5367 5365 5363 5362 5361 5359 5357 5355 5353 5352 5352 5350 5347
5393 5392 5392 5392 5392 5391 5391 5390 5389 5388 5386 5385 5382 5380 5377 5375 5372 5370 5368 5365 5363 5362 5360 5358 5356 5355 5353 5353 5351 5350 5347 5345 5344 5341 5339 5339 5341 5339
5381 5381 5381 5381 5380 5380 5379 5378 5377 5376 5375 5373 5370 5368 5366 5363 5361 5358 5356 5353 5351 5350 5348 5345 5343 5341 5340 5340 5341 5337 5335 5334 5332 5331 5329 5328 5329 5330
5370 5370 5370 5369 5369 5368 5368 5366 5366 5364 5363 5361 5359 5356 5354 5351 5349 5347 5345 5342 5340 5338 5336 5333 5331 5329 5327 5327 5327 5326 5323 5321 5320 5320 5320 5319 5319 5320
5358 5358 5359 5358 5358 5357 5356 5355 5354 5353 5351 5349 5347 5345 5342 5340 5338 5336 5333 5331 5329 5326 5324 5322 5320 5317 5315 5312 5312 5315 5313 5310 5308 5307 5308 5308 5310 5311
5346 5347 5347 5347 5347 5347 5346 5345 5343 5341 5339 5337 5336 5334 5331 5329 5327 5324 5322 5319 5317 5315 5312 5310 5308 5305 5302 5300 5301 5302 5303 5302 5299 5297 5296 5296 5295 5297
5334 5335 5336 5336 5336 5336 5335 5334 5333 5331 5329 5327 5325 5323 5321 5319 5316 5314 5311 5309 5306 5304 5301 5299 5296 5293 5291 5289 5288 5289 5289 5290 5290 5290 5290 5288 5287 5287